OCN2PW EDDF-HEGN

Flight info

Callsign OCN2PW
Flight time N/A
Altitude 31000
Route CINDY5L CINDY Z74 HAREM DCT ASLEP DCT TAKUT DCT DINKU L603 BESNI/N0460F330 L605 MIQ DCT ALUTU DCT BIBAG L605 ESEGA DCT VELOM DCT GOTAR/N0457F350 DCT NOHAT DCT BABIT DCT KOTUS DCT OBAGI DCT NISVA DCT VIT DCT RODIP UN131 KULAR UT39 TOMBI DCT DASNI M855 MAROS DCT USEBE DCT EVORA DCT RASDA A16 CVO L315 SOKOT SOKOT1A
Aircraft A320/M-SDE3FGHIRWY/LB1

Departure

Time N/A
Airport Frankfurt Main Airport (EDDF)

Arrival

Time 2026-05-01 13:22
Airport Hurghada International Airport (HEGN)
Time Latitude Longitude Altitude Speed Heading
2026-05-01 12:42 30.83955 31.25094 34928 ft 487 kts 177°
2026-05-01 12:42 30.80606 31.25712 34936 ft 488 kts 177°
2026-05-01 12:42 30.73897 31.26956 34937 ft 488 kts 177°
2026-05-01 12:43 30.67191 31.28200 34943 ft 488 kts 177°
2026-05-01 12:43 30.60477 31.29439 34925 ft 489 kts 178°
2026-05-01 12:44 30.53753 31.30670 34933 ft 489 kts 178°
2026-05-01 12:45 30.40281 31.33146 34938 ft 491 kts 177°
2026-05-01 12:45 30.33530 31.34397 34920 ft 492 kts 178°
2026-05-01 12:46 30.26768 31.35635 34928 ft 493 kts 178°
2026-05-01 12:46 30.19983 31.36869 34930 ft 494 kts 178°
2026-05-01 12:47 30.13195 31.38170 34919 ft 498 kts 173°
2026-05-01 12:47 30.06678 31.41182 34925 ft 514 kts 153°
2026-05-01 12:48 30.00828 31.46020 34932 ft 519 kts 147°
2026-05-01 12:48 29.95030 31.50973 34940 ft 519 kts 147°
2026-05-01 12:49 29.89219 31.55912 34955 ft 519 kts 147°
2026-05-01 12:49 29.83451 31.60820 34979 ft 519 kts 147°
2026-05-01 12:50 29.77650 31.65763 34960 ft 519 kts 147°
2026-05-01 12:50 29.71847 31.70710 34956 ft 519 kts 147°
2026-05-01 12:51 29.66033 31.75632 34958 ft 519 kts 147°
2026-05-01 12:52 29.57307 31.83016 34967 ft 519 kts 147°
2026-05-01 12:52 29.48572 31.90380 34943 ft 519 kts 147°
2026-05-01 12:53 29.40575 31.97114 34943 ft 520 kts 147°
2026-05-01 12:54 29.34744 32.02012 34944 ft 519 kts 147°
2026-05-01 12:54 29.26000 32.09348 34958 ft 519 kts 147°
2026-05-01 12:55 29.17259 32.16669 34960 ft 518 kts 147°
2026-05-01 12:56 29.11440 32.21527 34948 ft 518 kts 147°
2026-05-01 12:56 29.05623 32.26389 34951 ft 518 kts 147°
2026-05-01 12:57 28.99796 32.31238 34946 ft 518 kts 147°
2026-05-01 12:57 28.91061 32.38507 34944 ft 518 kts 148°
2026-05-01 12:58 28.85243 32.43352 34934 ft 518 kts 148°
2026-05-01 12:59 28.76514 32.50603 34933 ft 518 kts 148°
2026-05-01 12:59 28.67760 32.57833 34937 ft 519 kts 148°
2026-05-01 13:00 28.58989 32.65073 34942 ft 519 kts 148°
2026-05-01 13:01 28.50201 32.72298 34925 ft 520 kts 148°
2026-05-01 13:02 28.41409 32.79536 34838 ft 521 kts 148°
2026-05-01 13:07 27.80171 33.29483 25161 ft 518 kts 147°
2026-05-01 13:07 27.77236 33.31863 24046 ft 519 kts 147°
2026-05-01 13:07 27.74320 33.34221 23256 ft 512 kts 147°
2026-05-01 13:08 27.71448 33.36542 22420 ft 504 kts 147°
2026-05-01 13:08 27.68614 33.38830 21573 ft 498 kts 147°
2026-05-01 13:08 27.65813 33.41085 20765 ft 492 kts 147°
2026-05-01 13:08 27.63047 33.43314 19980 ft 486 kts 147°
2026-05-01 13:09 27.60313 33.45522 19230 ft 481 kts 147°
2026-05-01 13:09 27.57621 33.47695 18231 ft 469 kts 147°
2026-05-01 13:09 27.54989 33.49819 16792 ft 462 kts 147°
2026-05-01 13:09 27.52362 33.51860 15457 ft 454 kts 152°
2026-05-01 13:10 27.49620 33.53417 14822 ft 430 kts 160°
2026-05-01 13:10 27.46875 33.54735 14187 ft 428 kts 160°
2026-05-01 13:10 27.44153 33.56060 13539 ft 426 kts 160°
2026-05-01 13:10 27.41441 33.57388 12875 ft 423 kts 160°
2026-05-01 13:11 27.38751 33.58707 12268 ft 419 kts 160°
2026-05-01 13:11 27.36088 33.59994 11639 ft 415 kts 162°
2026-05-01 13:11 27.33361 33.60946 11211 ft 403 kts 169°
2026-05-01 13:11 27.30708 33.61739 11075 ft 382 kts 169°
2026-05-01 13:12 27.28345 33.62451 10950 ft 354 kts 169°
2026-05-01 13:12 27.26037 33.63150 10839 ft 336 kts 169°
2026-05-01 13:12 27.23822 33.63813 10720 ft 324 kts 169°
2026-05-01 13:12 27.21671 33.64448 10523 ft 317 kts 169°
2026-05-01 13:13 27.19587 33.65058 10400 ft 312 kts 169°
2026-05-01 13:13 27.17486 33.65672 10294 ft 312 kts 169°
2026-05-01 13:13 27.15390 33.66287 10164 ft 311 kts 169°
2026-05-01 13:13 27.13299 33.66902 10016 ft 310 kts 169°
2026-05-01 13:14 27.11220 33.67517 9860 ft 310 kts 169°
2026-05-01 13:14 27.09112 33.68142 9327 ft 314 kts 169°
2026-05-01 13:14 27.07019 33.68768 8962 ft 311 kts 169°
2026-05-01 13:14 27.04921 33.69395 8484 ft 313 kts 170°
2026-05-01 13:15 27.02818 33.70015 8098 ft 311 kts 168°
2026-05-01 13:15 27.00741 33.70624 7772 ft 307 kts 168°
2026-05-01 13:15 26.98689 33.71233 7347 ft 305 kts 167°
2026-05-01 13:15 26.96590 33.71852 6602 ft 317 kts 167°
2026-05-01 13:16 26.94598 33.72788 6283 ft 304 kts 143°
2026-05-01 13:16 26.93347 33.74566 6132 ft 283 kts 111°
2026-05-01 13:16 26.93031 33.76656 5609 ft 273 kts 79°
2026-05-01 13:17 26.95714 33.81852 4251 ft 253 kts 52°
2026-05-01 13:17 26.96722 33.83434 3910 ft 242 kts 45°
2026-05-01 13:18 26.99451 33.84541 3461 ft 205 kts 345°
2026-05-01 13:18 27.00804 33.84149 3193 ft 197 kts 343°
2026-05-01 13:18 27.02099 33.83766 2943 ft 186 kts 345°
2026-05-01 13:18 27.03323 33.83406 2686 ft 178 kts 344°
2026-05-01 13:19 27.04489 33.83062 2432 ft 172 kts 345°
2026-05-01 13:19 27.05626 33.82724 2206 ft 165 kts 347°
2026-05-01 13:19 27.07710 33.82108 1797 ft 143 kts 348°
2026-05-01 13:20 27.08662 33.81826 1630 ft 140 kts 346°
2026-05-01 13:20 27.09599 33.81553 1421 ft 141 kts 349°
2026-05-01 13:20 27.10541 33.81293 1160 ft 136 kts 350°
2026-05-01 13:21 27.12349 33.80779 815 ft 133 kts 344°
2026-05-01 13:21 27.13219 33.80458 624 ft 128 kts 348°
2026-05-01 13:21 27.14050 33.80207 452 ft 132 kts 352°
2026-05-01 13:21 27.14943 33.79969 337 ft 124 kts 348°
2026-05-01 13:22 27.15783 33.79713 198 ft 125 kts 350°
2026-05-01 13:22 27.16566 33.79493 111 ft 105 kts 345°
2026-05-01 13:22 27.17111 33.79337 109 ft 56 kts 345°
2026-05-01 13:22 27.17434 33.79244 101 ft 42 kts 346°
2026-05-01 13:23 27.17703 33.79175 99 ft 38 kts 348°
2026-05-01 13:23 27.17946 33.79191 98 ft 34 kts 16°
2026-05-01 13:23 27.18091 33.79221 100 ft 31 kts 356°
2026-05-01 13:23 27.18357 33.79158 101 ft 28 kts 346°
2026-05-01 13:24 27.18485 33.79122 98 ft 29 kts 347°
2026-05-01 13:24 27.18675 33.79065 97 ft 26 kts 343°
2026-05-01 13:24 27.18851 33.79011 90 ft 21 kts 345°
2026-05-01 13:25 27.18989 33.79239 70 ft 26 kts 75°
2026-05-01 13:25 27.19043 33.79457 59 ft 31 kts 73°
2026-05-01 13:25 27.19081 33.79625 60 ft 19 kts 76°
2026-05-01 13:25 27.19115 33.79774 60 ft 20 kts 75°
2026-05-01 13:26 27.19123 33.79876 59 ft 12 kts 115°
2026-05-01 13:26 27.19057 33.79916 55 ft 10 kts 163°
2026-05-01 13:26 27.18990 33.79938 57 ft 10 kts 166°
2026-05-01 13:26 27.18922 33.79959 53 ft 11 kts 165°
2026-05-01 13:27 27.18847 33.79980 53 ft 12 kts 167°
2026-05-01 13:27 27.18742 33.80010 54 ft 18 kts 165°
2026-05-01 13:27 27.18485 33.80086 50 ft 19 kts 165°
2026-05-01 13:28 27.18255 33.80153 52 ft 15 kts 166°
2026-05-01 13:28 27.18179 33.80209 54 ft 12 kts 107°
2026-05-01 13:29 27.18205 33.80351 56 ft 12 kts 77°
2026-05-01 13:29 27.18080 33.80455 56 ft 12 kts 165°
2026-05-01 13:30 27.17830 33.80542 53 ft 6 kts 104°
2026-05-01 13:31 27.17844 33.80615 58 ft 4 kts 75°
2026-05-01 13:31 27.17852 33.80646 51 ft 0 kts 75°